Russellville, AR

9:59 AM CDT on October 20, 2019 (GMT -0500)
Russellville Regional

Weather History for KRUE - August, 2019

Change the Weather History Date:

Monday, August 12, 2019

  Actual Average (KHOT) Record (KHOT)
Temperature  
Mean Temperature 86 °F -  
Max Temperature 97 °F 91 °F 106 °F (2007)
Min Temperature 75 °F 68 °F 53 °F (1967)
Cooling Degree Days 20    
Growing Degree Days 36 (Base 50)    
Moisture  
Dew Point 75 °F    
Average Humidity 73    
Maximum Humidity 94    
Minimum Humidity 44    
Precipitation  
Precipitation 0.00 in - - ()
Sea Level Pressure  
Sea Level Pressure 29.86 in    
Wind  
Wind Speed 2 mph (South)    
Max Wind Speed 8 mph    
Max Gust Speed -    
Visibility 9 miles    
Events      
Averages and records for this station are not official NWS values.
T = Trace of Precipitation, MM = Missing Value Source: NWS Daily Summary

Daily Weather History Graph

Daily Weather History Graph

Search for Another Location

Airport or City:

Astronomy

Aug. 12, 2019 Rise Set
Actual Time 6:29 AM CDT 8:04 PM CDT
Civil Twilight 6:02 AM CDT 8:31 PM CDT
Nautical Twilight 5:29 AM CDT 9:04 PM CDT
Astronomical Twilight 4:55 AM CDT 9:38 PM CDT
Moon 6:30 PM CDT (8/12) 3:44 AM CDT (8/12)
Length of Visible Light 14h 29m
Length of Day
13h 35m
Waxing Gibbous, 93% of the Moon is Illuminated
Aug 12
Waxing Gibbous
Aug 15
Full
Aug 23
Last Quarter
Aug 30
New
Sep 5
First Quarter

Hourly Weather History & Observations

Time (CDT) Temp. Heat Index Dew Point Humidity Pressure Visibility Wind Dir Wind Speed Gust Speed Precip Events Conditions
12:53 AM 77.0 °F - 75.0 °F 94% 29.88 in 10.0 mi Calm Calm - N/A   Clear
1:53 AM 77.0 °F - 75.0 °F 94% 29.90 in 9.0 mi Calm Calm - N/A   Clear
2:53 AM 77.0 °F - 75.0 °F 94% 29.88 in 6.0 mi Calm Calm - N/A   Clear
3:53 AM 77.0 °F - 75.0 °F 94% 29.87 in 5.0 mi Calm Calm - N/A   Clear
4:53 AM 75.9 °F - 73.9 °F 94% 29.88 in 5.0 mi Calm Calm - N/A   Clear
5:53 AM 77.0 °F - 75.0 °F 94% 29.88 in 7.0 mi Calm Calm - N/A   Clear
6:53 AM 78.1 °F - 75.9 °F 93% 29.89 in 6.0 mi ESE 3.5 mph - N/A   Clear
7:53 AM 81.0 °F 87.3 °F 75.9 °F 85% 29.91 in 8.0 mi Calm Calm - N/A   Clear
8:53 AM 84.0 °F 92.6 °F 75.9 °F 76% 29.91 in 10.0 mi Calm Calm - N/A   Clear
9:53 AM 87.1 °F 98.8 °F 77.0 °F 72% 29.91 in 10.0 mi Variable 3.5 mph - N/A   Clear
10:53 AM 89.1 °F 100.2 °F 75.9 °F 65% 29.91 in 10.0 mi Variable 6.9 mph - N/A   Clear
11:53 AM 91.9 °F 103.2 °F 75.0 °F 58% 29.91 in 10.0 mi WSW 5.8 mph - N/A   Clear
12:53 PM 93.9 °F 104.0 °F 73.9 °F 52% 29.89 in 10.0 mi North - - N/A   Partly Cloudy
1:53 PM 95.0 °F 103.2 °F 72.0 °F 47% 29.87 in 10.0 mi SW 8.1 mph - N/A   Clear
2:53 PM 96.1 °F 103.5 °F 71.1 °F 44% 29.85 in 10.0 mi SW 4.6 mph - N/A   Clear
3:53 PM 96.1 °F 107.1 °F 73.9 °F 49% 29.83 in 10.0 mi Variable 5.8 mph - N/A   Partly Cloudy
4:53 PM 95.0 °F 104.5 °F 73.0 °F 49% 29.82 in 10.0 mi SSW 3.5 mph - N/A   Partly Cloudy
5:53 PM 96.1 °F 107.1 °F 73.9 °F 49% 29.81 in 10.0 mi SW 3.5 mph - N/A   Clear
6:53 PM 93.9 °F 103.4 °F 73.0 °F 51% 29.80 in 10.0 mi SSW 4.6 mph - N/A   Clear
7:53 PM 86.0 °F 96.9 °F 77.0 °F 74% 29.81 in 10.0 mi Calm Calm - N/A   Clear
8:53 PM 82.0 °F 89.4 °F 75.9 °F 82% 29.81 in 10.0 mi Calm Calm - N/A   Clear
9:53 PM 82.9 °F 89.4 °F 73.9 °F 74% 29.83 in 10.0 mi Calm Calm - N/A   Clear
10:53 PM 79.0 °F - 73.9 °F 84% 29.84 in 10.0 mi ESE 4.6 mph - N/A   Clear
11:53 PM 79.0 °F - 73.9 °F 84% 29.83 in 10.0 mi ESE 4.6 mph - N/A   Clear